Date String (YYYY-MM-DD hh:mm:ss) UTC,Instrument flags,Ambient pressure (hPa),Sample flow (lpm),Bypass flow (lpm),Sample temperature (°C),Ambient temperature (°C),ASC tube jacket temperature (°C),LED temperature (°C),Box temperature (°C),Sample RH (%),Span deviation,Mass concentration (μg/m³),Mass concentration (μg/m³),Mass concentration (μg/m³)
DateTimeUTC,F1_M11,P_M11,Q1_M11,Q2_M11,T1_M11,T2_M11,T3_M11,T4_M11,T5_M11,U1_M11,ZSPAN_M11,X0_M11,X2_M11,X1_M11
2022-05-01 22:00:00,,0820.3,5.01,0.00,30.1,29.2,00.0,39.0,31.9,10.6,0003.4,0016.79,0007.66,0006.10
2022-05-01 22:01:00,,0820.3,4.98,0.00,30.1,29.2,00.0,39.0,31.8,10.7,0003.1,0017.00,0007.69,0006.08
2022-05-01 22:02:00,,0820.3,5.02,0.00,30.1,29.3,00.0,39.0,31.8,10.7,0003.0,0017.53,0007.69,0006.07
2022-05-01 22:03:00,,0820.2,4.98,0.00,30.1,29.3,00.0,39.0,31.9,10.6,0002.8,0018.97,0007.70,0006.07
2022-05-01 22:04:00,,0820.2,5.01,0.00,30.1,29.2,00.0,39.0,31.9,10.5,0002.6,0019.79,0007.71,0006.06
2022-05-01 22:05:00,,0820.3,5.00,0.00,30.1,29.2,00.0,39.0,31.9,10.6,0002.5,0019.43,0007.73,0006.04
2022-05-01 22:06:00,,0820.2,5.00,0.00,30.1,29.2,00.0,39.0,31.8,10.7,0002.5,0019.29,0007.66,0006.00
2022-05-01 22:07:00,,0820.1,5.01,0.00,30.1,29.3,00.0,39.0,31.9,10.6,0002.1,0020.10,0007.65,0006.00
2022-05-01 22:08:00,,0820.0,4.98,0.00,30.1,29.3,00.0,39.0,31.8,10.7,0002.3,0020.08,0007.59,0005.98
2022-05-01 22:09:00,,0820.0,5.01,0.00,30.1,29.2,00.0,39.0,31.8,10.7,0002.5,0018.76,0007.55,0005.96
2022-05-01 22:10:00,,0819.9,5.01,0.00,30.1,29.3,00.0,39.0,31.8,10.7,0002.5,0018.99,0007.62,0005.96
2022-05-01 22:11:00,,0820.0,4.99,0.00,30.1,29.3,00.0,39.0,31.8,10.7,0002.2,0019.31,0007.66,0005.96
2022-05-01 22:12:00,,0819.9,5.01,0.00,30.1,29.3,00.0,39.0,31.9,10.6,0002.1,0019.47,0007.67,0005.97
2022-05-01 22:13:00,,0819.9,4.99,0.00,30.1,29.2,00.0,39.0,31.9,10.6,0002.0,0019.24,0007.69,0005.98
2022-05-01 22:14:00,,0819.9,5.01,0.00,30.1,29.2,00.0,39.0,31.8,10.6,0002.4,0018.57,0007.74,0005.98
2022-05-01 22:15:00,,0819.9,4.99,0.00,30.1,29.2,00.0,39.0,31.8,10.6,0002.6,0017.80,0007.73,0005.97
2022-05-01 22:16:00,,0819.9,5.00,0.00,30.1,29.3,00.0,39.0,31.8,10.7,0002.7,0018.83,0007.72,0005.97
2022-05-01 22:17:00,,0819.9,5.00,0.00,30.1,29.3,00.0,39.0,31.8,10.6,0002.5,0018.93,0007.73,0005.99
2022-05-01 22:18:00,,0819.9,5.02,0.00,30.1,29.3,00.0,39.0,31.8,10.7,0002.8,0018.60,0007.76,0005.97
2022-05-01 22:19:00,,0819.9,4.99,0.00,30.1,29.3,00.0,39.0,31.8,10.6,0003.4,0018.87,0007.84,0005.96
2022-05-01 22:20:00,,0819.9,5.00,0.00,30.1,29.3,00.0,39.0,31.8,10.6,0003.1,0019.78,0007.93,0005.97
2022-05-01 22:21:00,,0819.9,4.99,0.00,30.1,29.3,00.0,39.0,31.8,10.6,0003.0,0019.70,0007.95,0005.94
2022-05-01 22:22:00,,0820.0,5.01,0.00,30.1,29.3,00.0,39.0,31.8,10.6,0002.1,0020.38,0007.86,0005.89
2022-05-01 22:23:00,,0820.0,5.00,0.00,30.1,29.2,00.0,39.1,31.8,10.6,0005.0,0020.66,0007.82,0005.88
2022-05-01 22:24:00,,0820.1,4.99,0.00,30.1,29.3,00.0,39.1,31.9,10.6,0005.2,0022.06,0007.74,0005.85
2022-05-01 22:25:00,,0820.0,5.02,0.00,30.1,29.3,00.0,39.1,31.9,10.6,0000.7,0022.48,0007.70,0005.83
2022-05-01 22:26:00,,0820.1,4.99,0.00,30.1,29.3,00.0,39.1,31.8,10.6,0006.0,0024.08,0007.63,0005.81
2022-05-01 22:27:00,,0820.1,5.02,0.00,30.1,29.2,00.0,39.1,31.8,10.6,0006.0,0023.46,0007.63,0005.78
2022-05-01 22:28:00,,0820.1,4.99,0.00,30.1,29.3,00.0,39.1,31.9,10.6,0004.3,0023.35,0007.63,0005.76
2022-05-01 22:29:00,,0820.1,5.02,0.00,30.1,29.3,00.0,39.1,31.9,10.7,0000.0,0023.57,0007.58,0005.73
2022-05-01 22:30:00,,0820.0,4.98,0.00,30.1,29.3,00.0,39.1,31.9,10.6,0000.0,0023.77,0007.56,0005.70
2022-05-01 22:31:00,,0820.0,5.01,0.00,30.1,29.3,00.0,39.1,31.9,10.6,0000.0,0022.95,0007.44,0005.66
2022-05-01 22:32:00,,0820.0,4.99,0.00,30.1,29.3,00.0,39.1,31.9,10.6,0000.0,0022.81,0007.31,0005.63
2022-05-01 22:33:00,,0820.0,5.02,0.00,30.1,29.3,00.0,39.1,31.9,10.7,0000.0,0021.88,0007.23,0005.60
2022-05-01 22:34:00,,0820.0,4.99,0.00,30.1,29.3,00.0,39.1,31.9,10.7,0000.0,0021.16,0007.16,0005.54
2022-05-01 22:35:00,,0820.0,5.01,0.00,30.1,29.3,00.0,39.1,31.9,10.7,0000.0,0019.48,0007.12,0005.50
2022-05-01 22:36:00,,0820.0,4.99,0.00,30.2,29.3,00.0,39.1,31.9,10.5,0000.0,0019.70,0007.04,0005.46
2022-05-01 22:37:00,,0819.9,5.01,0.00,30.2,29.3,00.0,39.1,31.9,10.5,0000.0,0017.60,0006.99,0005.42
2022-05-01 22:38:00,,0819.9,4.99,0.00,30.2,29.3,00.0,39.1,31.9,10.5,0000.0,0017.54,0006.92,0005.36
2022-05-01 22:39:00,,0819.9,5.00,0.00,30.2,29.3,00.0,39.1,31.9,10.5,0000.0,0019.62,0007.07,0005.32
2022-05-01 22:40:00,,0819.9,5.01,0.00,30.2,29.3,00.0,39.1,31.9,10.5,0000.0,0022.30,0007.23,0005.30
2022-05-01 22:41:00,,0819.9,4.98,0.00,30.2,29.3,00.0,39.1,31.9,10.6,0000.0,0020.79,0007.12,0005.26
2022-05-01 22:42:00,,0820.0,5.01,0.00,30.2,29.3,00.0,39.1,31.9,10.5,0000.0,0021.37,0007.13,0005.23
2022-05-01 22:43:00,,0820.0,5.00,0.00,30.2,29.3,00.0,39.1,31.9,10.5,0000.0,0021.01,0007.09,0005.19
2022-05-01 22:44:00,,0820.0,4.98,0.00,30.2,29.3,00.0,39.1,31.9,10.4,0000.0,0021.07,0007.06,0005.16
2022-05-01 22:45:00,,0820.1,5.01,0.00,30.2,29.3,00.0,39.1,31.9,10.5,0000.0,0021.39,0007.07,0005.15
2022-05-01 22:46:00,,0820.1,4.98,0.00,30.2,29.3,00.0,39.1,31.9,10.5,0000.0,0021.52,0007.05,0005.14
2022-05-01 22:47:00,,0820.1,5.02,0.00,30.2,29.3,00.0,39.1,31.9,10.5,0000.0,0020.60,0007.05,0005.12
2022-05-01 22:48:00,,0820.1,4.98,0.00,30.2,29.3,00.0,39.1,31.9,10.5,0000.0,0020.79,0007.04,0005.10
2022-05-01 22:49:00,,0820.0,5.01,0.00,30.2,29.3,00.0,39.1,31.9,10.5,0000.0,0021.06,0007.00,0005.08
2022-05-01 22:50:00,,0820.0,4.99,0.00,30.2,29.3,00.0,39.1,31.9,10.6,0000.0,0021.04,0006.86,0005.05
2022-05-01 22:51:00,,0819.9,5.00,0.00,30.2,29.3,00.0,39.1,31.9,10.5,0000.0,0017.90,0006.57,0005.00
2022-05-01 22:52:00,,0819.9,5.00,0.00,30.2,29.3,00.0,39.1,31.9,10.4,0000.0,0017.74,0006.52,0004.97
2022-05-01 22:53:00,,0819.9,5.00,0.00,30.2,29.3,00.0,39.1,31.8,10.4,0000.0,0019.13,0006.51,0004.94
2022-05-01 22:54:00,,0819.9,4.99,0.00,30.2,29.3,00.0,39.1,31.9,10.2,0000.0,0019.38,0006.55,0004.91
2022-05-01 22:55:00,,0819.9,5.02,0.00,30.2,29.3,00.0,39.1,31.8,10.2,0000.0,0020.54,0006.67,0004.89
2022-05-01 22:56:00,,0819.9,4.98,0.00,30.2,29.3,00.0,39.1,31.9,10.1,0000.0,0020.51,0006.69,0004.88
2022-05-01 22:57:00,,0819.9,5.02,0.00,30.2,29.3,00.0,39.1,31.9,10.2,0000.0,0020.89,0006.66,0004.84
2022-05-01 22:58:00,,0819.9,4.99,0.00,30.2,29.2,00.0,39.1,31.9,10.1,-000.0,0020.96,0006.64,0004.80
2022-05-01 22:59:00,,0819.9,5.01,0.00,30.2,29.2,00.0,39.1,31.9,10.2,-000.0,0021.10,0006.61,0004.77
